Вернуться в каталог

ONEWEB-0302

АктивенСвязьPO
NORAD 49091·PAYLOAD·🇬🇧 United Kingdom

Запущен Aug 21, 2021 с Baikonur Cosmodrome

Loading…

Ближайшие Пролёты (ближайшие 24 часа)

TLE

СвежийSource: CelesTrak SupGP

Эпоха: Sep 14, 2026, 23:10 UTC

1 49091C 21075S   26257.96581436  .00000695  00000+0  19330-2 0  2576
2 49091  87.8988 332.8427 0001558 101.0244 294.6019 13.12444640    14

Отслеживайте ONEWEB-0302 в реальном времени с AllMySat

Download on the App Store